Year,Month,Day,Hour,Minute,Value (Times are PST for temperature in C)
2011,03,07,14,31,5.90
2011,03,07,14,32,5.80
2011,03,07,14,33,5.80
2011,03,07,14,34,5.80
2011,03,07,14,35,5.90
2011,03,07,14,36,5.90
2011,03,07,14,37,6.00
2011,03,07,14,38,6.00
2011,03,07,14,39,6.00
2011,03,07,14,40,5.90
2011,03,07,14,41,5.90
2011,03,07,14,42,5.90
2011,03,07,14,43,5.80
2011,03,07,14,44,5.70
2011,03,07,14,45,5.70
2011,03,07,14,46,5.80
2011,03,07,14,47,5.80
2011,03,07,14,48,5.70
2011,03,07,14,49,5.60
2011,03,07,14,50,5.60
2011,03,07,14,51,5.60
2011,03,07,14,52,5.50
2011,03,07,14,53,5.50
2011,03,07,14,54,5.50
2011,03,07,14,55,5.50
2011,03,07,14,56,5.50
2011,03,07,14,57,5.50
2011,03,07,14,58,5.60
2011,03,07,14,59,5.60
2011,03,07,15,00,5.60
2011,03,07,15,01,5.60
2011,03,07,15,02,5.60
2011,03,07,15,03,5.60
2011,03,07,15,04,5.60
2011,03,07,15,05,5.70
2011,03,07,15,06,5.70
2011,03,07,15,07,5.70
2011,03,07,15,08,5.70
2011,03,07,15,09,5.70
2011,03,07,15,10,5.70
2011,03,07,15,11,5.70
2011,03,07,15,12,5.70
2011,03,07,15,13,5.70
2011,03,07,15,14,5.70
2011,03,07,15,15,5.60
2011,03,07,15,16,5.60
2011,03,07,15,17,5.60
2011,03,07,15,18,5.60
2011,03,07,15,19,5.60
2011,03,07,15,20,5.60
2011,03,07,15,21,5.60
2011,03,07,15,22,5.70
2011,03,07,15,23,5.70
2011,03,07,15,24,5.70
2011,03,07,15,25,5.60
2011,03,07,15,26,5.60
2011,03,07,15,27,5.60
2011,03,07,15,28,5.60
2011,03,07,15,29,5.60
2011,03,07,15,30,5.60
2011,03,07,15,31,5.60
2011,03,07,15,32,5.70
2011,03,07,15,33,5.70
2011,03,07,15,34,5.70
2011,03,07,15,35,5.70
2011,03,07,15,36,5.70
2011,03,07,15,37,5.70
2011,03,07,15,38,5.70
2011,03,07,15,39,5.70
2011,03,07,15,40,5.70
2011,03,07,15,41,5.70
2011,03,07,15,42,5.70
2011,03,07,15,43,5.70
2011,03,07,15,44,5.70
2011,03,07,15,45,5.70
2011,03,07,15,46,5.70
2011,03,07,15,47,5.70
2011,03,07,15,48,5.70
2011,03,07,15,49,5.70
2011,03,07,15,50,5.70
2011,03,07,15,51,5.70
2011,03,07,15,52,5.70
2011,03,07,15,53,5.70
2011,03,07,15,54,5.70
2011,03,07,15,55,5.70
2011,03,07,15,56,5.70
2011,03,07,15,57,5.70
2011,03,07,15,58,5.70
2011,03,07,15,59,5.70
2011,03,07,16,00,5.70
2011,03,07,16,01,5.70
2011,03,07,16,02,5.70
2011,03,07,16,03,5.70
2011,03,07,16,04,5.70
2011,03,07,16,05,5.70
2011,03,07,16,06,5.70
2011,03,07,16,07,5.70
2011,03,07,16,08,5.60
2011,03,07,16,09,5.60
2011,03,07,16,10,5.60
2011,03,07,16,11,5.60
2011,03,07,16,12,5.60
2011,03,07,16,13,5.50
2011,03,07,16,14,5.50
2011,03,07,16,15,5.50
2011,03,07,16,16,5.50
2011,03,07,16,17,5.50
2011,03,07,16,18,5.50
2011,03,07,16,19,5.50
2011,03,07,16,20,5.50
2011,03,07,16,21,5.50
2011,03,07,16,22,5.50
2011,03,07,16,23,5.40
2011,03,07,16,24,5.40
2011,03,07,16,25,5.40
2011,03,07,16,26,5.50
2011,03,07,16,27,5.50
2011,03,07,16,28,5.50
2011,03,07,16,29,5.50
2011,03,07,16,30,5.50
2011,03,07,16,31,5.50
2011,03,07,16,32,5.50
2011,03,07,16,33,5.50
2011,03,07,16,34,5.50
2011,03,07,16,35,5.50
2011,03,07,16,36,5.50
2011,03,07,16,37,5.50
2011,03,07,16,38,5.50
2011,03,07,16,39,5.50
2011,03,07,16,40,5.50
2011,03,07,16,41,5.50
2011,03,07,16,42,5.50
2011,03,07,16,43,5.40
2011,03,07,16,44,5.40
2011,03,07,16,45,5.40
2011,03,07,16,46,5.40
2011,03,07,16,47,5.40
2011,03,07,16,48,5.40
2011,03,07,16,49,5.40
2011,03,07,16,50,5.40
2011,03,07,16,51,5.40
2011,03,07,16,52,5.30
2011,03,07,16,53,5.30
2011,03,07,16,54,5.30
2011,03,07,16,55,5.30
2011,03,07,16,56,5.30
2011,03,07,16,57,5.30
2011,03,07,16,58,5.30
2011,03,07,16,59,5.30
2011,03,07,17,00,5.30
2011,03,07,17,01,5.30
2011,03,07,17,02,5.30
2011,03,07,17,03,5.30
2011,03,07,17,04,5.30
2011,03,07,17,05,5.30
2011,03,07,17,06,5.30
2011,03,07,17,07,5.30
2011,03,07,17,08,5.30
2011,03,07,17,09,5.30
2011,03,07,17,10,5.30
2011,03,07,17,11,5.30
2011,03,07,17,12,5.30
2011,03,07,17,13,5.30
2011,03,07,17,14,5.30
2011,03,07,17,15,5.40
2011,03,07,17,16,5.40
2011,03,07,17,17,5.40
2011,03,07,17,18,5.40
2011,03,07,17,19,5.40
2011,03,07,17,20,5.40
2011,03,07,17,21,5.40
2011,03,07,17,22,5.40
2011,03,07,17,23,5.40
2011,03,07,17,24,5.40
2011,03,07,17,25,5.40
2011,03,07,17,26,5.40
2011,03,07,17,27,5.30
2011,03,07,17,28,5.30
2011,03,07,17,29,5.30
2011,03,07,17,30,5.40
2011,03,07,17,31,5.40
2011,03,07,17,32,5.40
2011,03,07,17,33,5.40
2011,03,07,17,34,5.40
2011,03,07,17,35,5.40
2011,03,07,17,36,5.40
2011,03,07,17,37,5.40
2011,03,07,17,38,5.40
2011,03,07,17,39,5.40
2011,03,07,17,40,5.30
2011,03,07,17,41,5.30
2011,03,07,17,42,5.30
2011,03,07,17,43,5.30
2011,03,07,17,44,5.30
2011,03,07,17,45,5.30
2011,03,07,17,46,5.30
2011,03,07,17,47,5.30
2011,03,07,17,48,5.30
2011,03,07,17,49,5.30
2011,03,07,17,50,5.30
2011,03,07,17,51,5.30
2011,03,07,17,52,5.30
2011,03,07,17,53,5.30
2011,03,07,17,54,5.30
2011,03,07,17,55,5.30
2011,03,07,17,56,5.20
2011,03,07,17,57,5.20
2011,03,07,17,58,5.20
2011,03,07,17,59,5.20
2011,03,07,18,00,5.20
2011,03,07,18,01,5.20
2011,03,07,18,02,5.20
2011,03,07,18,03,5.20
2011,03,07,18,04,5.20
2011,03,07,18,05,5.20
2011,03,07,18,06,5.20
2011,03,07,18,07,5.20
2011,03,07,18,08,5.20
2011,03,07,18,09,5.20
2011,03,07,18,10,5.20
2011,03,07,18,11,5.20
2011,03,07,18,12,5.20
2011,03,07,18,13,5.20
2011,03,07,18,14,5.10
2011,03,07,18,15,5.10
2011,03,07,18,16,5.10
2011,03,07,18,17,5.10
2011,03,07,18,18,5.10
2011,03,07,18,19,5.10
2011,03,07,18,20,5.10
2011,03,07,18,21,5.10
2011,03,07,18,22,5.10
2011,03,07,18,23,5.10
2011,03,07,18,24,5.00
2011,03,07,18,25,5.00
2011,03,07,18,26,5.00
2011,03,07,18,27,5.00
2011,03,07,18,28,4.90
2011,03,07,18,29,4.90
2011,03,07,18,30,4.90
2011,03,07,18,31,4.90
2011,03,07,18,32,4.90
2011,03,07,18,33,4.90
2011,03,07,18,34,4.80
2011,03,07,18,35,4.80
2011,03,07,18,36,4.80
2011,03,07,18,37,4.80
2011,03,07,18,38,4.70
2011,03,07,18,39,4.70
2011,03,07,18,40,4.70
2011,03,07,18,41,4.60
2011,03,07,18,42,4.60
2011,03,07,18,43,4.60
2011,03,07,18,44,4.60
2011,03,07,18,45,4.50
2011,03,07,18,46,4.50
2011,03,07,18,47,4.50
2011,03,07,18,48,4.40
2011,03,07,18,49,4.40
2011,03,07,18,50,4.40
2011,03,07,18,51,4.30
2011,03,07,18,52,4.30
2011,03,07,18,53,4.30
2011,03,07,18,54,4.30
2011,03,07,18,55,4.30
2011,03,07,18,56,4.20
2011,03,07,18,57,4.20
2011,03,07,18,58,4.20
2011,03,07,18,59,4.20
2011,03,07,19,00,4.10
2011,03,07,19,01,4.10
2011,03,07,19,02,4.10
2011,03,07,19,03,4.10
2011,03,07,19,04,4.10
2011,03,07,19,05,4.10
2011,03,07,19,06,4.10
2011,03,07,19,07,4.10
2011,03,07,19,08,4.10
2011,03,07,19,09,4.10
2011,03,07,19,10,4.10
2011,03,07,19,11,4.10
2011,03,07,19,12,4.10
2011,03,07,19,13,4.10
2011,03,07,19,14,4.10
2011,03,07,19,15,4.10
2011,03,07,19,16,4.10
2011,03,07,19,17,4.00
2011,03,07,19,18,4.00
2011,03,07,19,19,4.00
2011,03,07,19,20,4.00
2011,03,07,19,21,4.00
2011,03,07,19,22,4.00
2011,03,07,19,23,4.00
2011,03,07,19,24,4.00
2011,03,07,19,25,4.00
2011,03,07,19,26,3.90
2011,03,07,19,27,3.90
2011,03,07,19,28,3.90
2011,03,07,19,29,3.90
2011,03,07,19,30,3.90
2011,03,07,19,31,3.90
2011,03,07,19,32,3.90
2011,03,07,19,33,3.90
2011,03,07,19,34,3.90
2011,03,07,19,35,3.80
2011,03,07,19,36,3.80
2011,03,07,19,37,3.80
2011,03,07,19,38,3.80
2011,03,07,19,39,3.80
2011,03,07,19,40,3.80
2011,03,07,19,41,3.80
2011,03,07,19,42,3.80
2011,03,07,19,43,3.80
2011,03,07,19,44,3.70
2011,03,07,19,45,3.70
2011,03,07,19,46,3.70
2011,03,07,19,47,3.70
2011,03,07,19,48,3.70
2011,03,07,19,49,3.70
2011,03,07,19,50,3.70
2011,03,07,19,51,3.70
2011,03,07,19,52,3.70
2011,03,07,19,53,3.70
2011,03,07,19,54,3.70
2011,03,07,19,55,3.70
2011,03,07,19,56,3.70
2011,03,07,19,57,3.70
2011,03,07,19,58,3.70
2011,03,07,19,59,3.60
2011,03,07,20,00,3.60
2011,03,07,20,01,3.60
2011,03,07,20,02,3.60
2011,03,07,20,03,3.60
2011,03,07,20,04,3.60
2011,03,07,20,05,3.60
2011,03,07,20,06,3.60
2011,03,07,20,07,3.60
2011,03,07,20,08,3.60
2011,03,07,20,09,3.50
2011,03,07,20,10,3.50
2011,03,07,20,11,3.50
2011,03,07,20,12,3.50
2011,03,07,20,13,3.50
2011,03,07,20,14,3.50
2011,03,07,20,15,3.50
2011,03,07,20,16,3.50
2011,03,07,20,17,3.50
2011,03,07,20,18,3.40
2011,03,07,20,19,3.40
2011,03,07,20,20,3.40
2011,03,07,20,21,3.40
2011,03,07,20,22,3.40
2011,03,07,20,23,3.40
2011,03,07,20,24,3.40
2011,03,07,20,25,3.40
2011,03,07,20,26,3.40
2011,03,07,20,27,3.40
2011,03,07,20,28,3.40
2011,03,07,20,29,3.40
2011,03,07,20,30,3.40
2011,03,07,20,31,3.40
2011,03,07,20,32,3.30
2011,03,07,20,33,3.30
2011,03,07,20,34,3.30
2011,03,07,20,35,3.30
2011,03,07,20,36,3.30
2011,03,07,20,37,3.30
2011,03,07,20,38,3.30
2011,03,07,20,39,3.30
2011,03,07,20,40,3.30
2011,03,07,20,41,3.30
2011,03,07,20,42,3.30
2011,03,07,20,43,3.30
2011,03,07,20,44,3.30
2011,03,07,20,45,3.30
2011,03,07,20,46,3.30
2011,03,07,20,47,3.30
2011,03,07,20,48,3.30
2011,03,07,20,49,3.30
2011,03,07,20,50,3.30
2011,03,07,20,51,3.30
2011,03,07,20,52,3.30
2011,03,07,20,53,3.30
2011,03,07,20,54,3.30
2011,03,07,20,55,3.30
2011,03,07,20,56,3.30
2011,03,07,20,57,3.30
2011,03,07,20,58,3.30
2011,03,07,20,59,3.30
2011,03,07,21,00,3.30
2011,03,07,21,01,3.30
2011,03,07,21,02,3.30
2011,03,07,21,03,3.30
2011,03,07,21,04,3.30
2011,03,07,21,05,3.30
2011,03,07,21,06,3.30
2011,03,07,21,07,3.30
2011,03,07,21,08,3.30
2011,03,07,21,09,3.30
2011,03,07,21,10,3.30
2011,03,07,21,11,3.30
2011,03,07,21,12,3.30
2011,03,07,21,13,3.30
2011,03,07,21,14,3.30
2011,03,07,21,15,3.30
2011,03,07,21,16,3.30
2011,03,07,21,17,3.30
2011,03,07,21,18,3.30
2011,03,07,21,19,3.30
2011,03,07,21,20,3.30
2011,03,07,21,21,3.30
2011,03,07,21,22,3.30
2011,03,07,21,23,3.30
2011,03,07,21,24,3.30
2011,03,07,21,25,3.30
2011,03,07,21,26,3.30
2011,03,07,21,27,3.30
2011,03,07,21,28,3.30
2011,03,07,21,29,3.30
2011,03,07,21,30,3.30
2011,03,07,21,31,3.30
2011,03,07,21,32,3.30
2011,03,07,21,33,3.30
2011,03,07,21,34,3.30
2011,03,07,21,35,3.30
2011,03,07,21,36,3.30
2011,03,07,21,37,3.30
2011,03,07,21,38,3.40
2011,03,07,21,39,3.40
2011,03,07,21,40,3.40
2011,03,07,21,41,3.40
2011,03,07,21,42,3.40
2011,03,07,21,43,3.40
2011,03,07,21,44,3.40
2011,03,07,21,45,3.40
2011,03,07,21,46,3.40
2011,03,07,21,47,3.40
2011,03,07,21,48,3.40
2011,03,07,21,49,3.40
2011,03,07,21,50,3.50
2011,03,07,21,51,3.50
2011,03,07,21,52,3.60
2011,03,07,21,53,3.60
2011,03,07,21,54,3.60
2011,03,07,21,55,3.60
2011,03,07,21,56,3.70
2011,03,07,21,57,3.70
2011,03,07,21,58,3.70
2011,03,07,21,59,3.70
2011,03,07,22,00,3.70
2011,03,07,22,01,3.70
2011,03,07,22,02,3.70
2011,03,07,22,03,3.70
2011,03,07,22,04,3.70
2011,03,07,22,05,3.70
2011,03,07,22,06,3.80
2011,03,07,22,07,3.80
2011,03,07,22,08,3.80
2011,03,07,22,09,3.80
2011,03,07,22,10,3.80
2011,03,07,22,11,3.90
2011,03,07,22,12,3.90
2011,03,07,22,13,3.90
2011,03,07,22,14,3.90
2011,03,07,22,15,3.90
2011,03,07,22,16,3.90
2011,03,07,22,17,3.80
2011,03,07,22,18,3.90
2011,03,07,22,19,3.90
2011,03,07,22,20,3.90
2011,03,07,22,21,3.90
2011,03,07,22,22,3.90
2011,03,07,22,23,3.90
2011,03,07,22,24,3.90
2011,03,07,22,25,3.90
2011,03,07,22,26,3.90
2011,03,07,22,27,3.90
2011,03,07,22,28,3.90
2011,03,07,22,29,3.90
2011,03,07,22,30,3.90
2011,03,07,22,31,3.90
2011,03,07,22,32,3.90
2011,03,07,22,33,3.90
2011,03,07,22,34,3.90
2011,03,07,22,35,3.90
2011,03,07,22,36,3.90
2011,03,07,22,37,3.90
2011,03,07,22,38,3.90
2011,03,07,22,39,3.90
2011,03,07,22,40,3.90
2011,03,07,22,41,3.90
2011,03,07,22,42,3.90
2011,03,07,22,43,4.00
2011,03,07,22,44,4.00
2011,03,07,22,45,4.10
2011,03,07,22,46,4.10
2011,03,07,22,47,4.10
2011,03,07,22,48,4.10
2011,03,07,22,49,4.20
2011,03,07,22,50,4.20
2011,03,07,22,51,4.20
2011,03,07,22,52,4.20
2011,03,07,22,53,4.20
2011,03,07,22,54,4.20
2011,03,07,22,55,4.20
2011,03,07,22,56,4.20
2011,03,07,22,57,4.20
2011,03,07,22,58,4.20
2011,03,07,22,59,4.20
2011,03,07,23,00,4.20
2011,03,07,23,01,4.20
2011,03,07,23,02,4.20
2011,03,07,23,03,4.20
2011,03,07,23,04,4.20
2011,03,07,23,05,4.10
2011,03,07,23,06,4.20
2011,03,07,23,07,4.20
2011,03,07,23,08,4.10
2011,03,07,23,09,4.10
2011,03,07,23,10,4.10
2011,03,07,23,11,4.10
2011,03,07,23,12,4.10
2011,03,07,23,13,4.10
2011,03,07,23,14,4.10
2011,03,07,23,15,4.10
2011,03,07,23,16,4.10
2011,03,07,23,17,4.10
2011,03,07,23,18,4.10
2011,03,07,23,19,4.10
2011,03,07,23,20,4.10
2011,03,07,23,21,4.20
2011,03,07,23,22,4.20
2011,03,07,23,23,4.20
2011,03,07,23,24,4.20
2011,03,07,23,25,4.20
2011,03,07,23,26,4.20
2011,03,07,23,27,4.30
2011,03,07,23,28,4.30
2011,03,07,23,29,4.30
2011,03,07,23,30,4.30
2011,03,07,23,31,4.30
2011,03,07,23,32,4.30
2011,03,07,23,33,4.30
2011,03,07,23,34,4.30
2011,03,07,23,35,4.30
2011,03,07,23,36,4.30
2011,03,07,23,37,4.30
2011,03,07,23,38,4.30
2011,03,07,23,39,4.30
2011,03,07,23,40,4.30
2011,03,07,23,41,4.30
2011,03,07,23,42,4.30
2011,03,07,23,43,4.30
2011,03,07,23,44,4.20
2011,03,07,23,45,4.20
2011,03,07,23,46,4.20
2011,03,07,23,47,4.20
2011,03,07,23,48,4.20
2011,03,07,23,49,4.20
2011,03,07,23,50,4.20
2011,03,07,23,51,4.20
2011,03,07,23,52,4.20
2011,03,07,23,53,4.10
2011,03,07,23,54,4.10
2011,03,07,23,55,4.10
2011,03,07,23,56,4.10
2011,03,07,23,57,4.10
2011,03,07,23,58,4.10
2011,03,07,23,59,4.10
